Voltar ao catálogo

STARLINK-37242

AtivoComunicaçõesSSO
NORAD 68728·PAYLOAD·🇺🇸 United States

Lançado Apr 15, 2026 de Vandenberg Space Force Base

Loading…

Próximas Passagens (próximas 24 horas)

TLE

AtualizadoSource: CelesTrak SupGP

Época: Sep 15, 2026, 03:26 UTC

1 68728C 26082A   26258.14354167 -.00002963  00000+0 -91964-4 0  2585
2 68728  97.2847 120.3611 0002163  92.5497 282.4579 15.33445173    16

Acompanhe STARLINK-37242 em tempo real com AllMySat

Download on the App Store